Weather reports worldwide

Advertisment
Loch Glascarnoch, United Kingdom (3031): temperature & dewpoint: 16.09.2018 14:00:00 - 22.09.2018 14:00:00 (BST)Loch Glascarnoch, United Kingdom (3031): temperature -20cm & temperature -100cm: 16.09.2018 14:00:00 - 22.09.2018 14:00:00 (BST)Loch Glascarnoch, United Kingdom (3031): wind speed & gusts: 16.09.2018 14:00:00 - 22.09.2018 14:00:00 (BST)Loch Glascarnoch, United Kingdom (3031): wind direction: 16.09.2018 14:00:00 - 22.09.2018 14:00:00 (BST)Loch Glascarnoch, United Kingdom (3031): reduced air pressure: 16.09.2018 14:00:00 - 22.09.2018 14:00:00 (BST)Loch Glascarnoch, United Kingdom (3031): visibility: 16.09.2018 14:00:00 - 22.09.2018 14:00:00 (BST)Loch Glascarnoch, United Kingdom (3031): sunshine duration: 16.09.2018 14:00:00 - 22.09.2018 14:00:00 (BST)Loch Glascarnoch, United Kingdom (3031): precipitation: 16.09.2018 14:00:00 - 22.09.2018 14:00:00 (BST)
Date & Time tt [°C] td [°C] tt -20cm [°C] tt -100cm [°C] ff [km/h] ff [kn] fx [km/h] fx [kn] dd ppp [hPa] vv [km] sd [min] rr [mm]
22.09.2018 14:00:00 10,1 5,9 - - 31 17 50 27 W 1011,6 35 36 0,0
22.09.2018 13:00:00 8,3 6,6 - - 29 16 46 25 W 1011,4 45 24 0,8
22.09.2018 12:00:00 9,9 5,4 - - 34 18 55 30 W 1010,5 35 54 0,0
22.09.2018 11:00:00 8,2 5,9 - - 29 16 54 29 W 1010,2 26 12 0,2
22.09.2018 10:00:00 7,5 6,1 10,5 11,0 34 18 54 29 W 1009,9 6 6 0,0
22.09.2018 09:00:00 7,1 5,8 - - 41 22 57 31 W 1009,2 6 0 0,8
22.09.2018 08:00:00 6,6 6,1 - - 31 17 55 30 W 1008,3 6 0 1,4
22.09.2018 07:00:00 6,5 5,1 - - 41 22 59 32 W 1007,5 5 0 0,6
22.09.2018 06:00:00 6,4 4,4 - - 39 21 67 36 W 1007,1 14 0 0,2
22.09.2018 05:00:00 7,1 2,9 - - 46 25 65 35 W 1006,8 30 0 0,2
22.09.2018 04:00:00 6,2 4,2 - - 35 19 65 35 W 1006,8 8 0 0,2
22.09.2018 03:00:00 7,1 3,1 - - 41 22 68 37 W 1006,3 24 0 0,0
22.09.2018 02:00:00 7,0 3,3 - - 39 21 67 36 W 1005,8 30 0 0,2
22.09.2018 01:00:00 6,1 4,2 - - 31 17 57 31 W 1005,7 3,3 - 0,6
22.09.2018 00:00:00 6,3 3,4 - - 46 25 63 34 W 1004,9 24 0 0,4
21.09.2018 23:00:00 6,8 4,1 - - 39 21 57 31 W 1004,2 14 0 0,2
21.09.2018 22:00:00 6,2 4,1 - - 39 21 54 29 W 1004,1 40 0 1,0
21.09.2018 21:00:00 6,5 4,2 - - 35 19 55 30 W 1003,9 10 0 0,2
21.09.2018 20:00:00 6,9 4,3 - - 34 18 46 25 W 1003,7 50 0 1,0
21.09.2018 19:00:00 6,7 4,1 - - 22 12 - - W 1003,4 50 0 1,2
21.09.2018 18:00:00 7,9 5,0 - - 18 10 46 25 W 1002,9 35 18 0,2
21.09.2018 17:00:00 7,3 4,3 - - 35 19 46 25 W 1002,7 35 12 0,0
21.09.2018 16:00:00 8,7 4,2 - - 31 17 55 30 WNW 1001,5 45 18 0,2
21.09.2018 15:00:00 10,0 4,6 - - 31 17 48 26 WNW 1000,4 35 30 0,0
21.09.2018 14:00:00 9,0 3,8 - - 29 16 50 27 NW 999,6 20 24 0,0
21.09.2018 13:00:00 8,5 5,6 - - 24 13 - - W 998,3 29 0 0,2
21.09.2018 12:00:00 8,0 6,2 - - 22 12 48 26 WNW 997,2 30 0 0,2
21.09.2018 11:00:00 6,9 6,2 - - 18 10 - - WNW 996,1 50 0 0,2
21.09.2018 10:00:00 6,2 5,0 10,7 11,2 22 12 - - WNW 995,1 10 0 0,2
21.09.2018 09:00:00 6,4 5,7 - - 18 10 - - W 993,8 20 0 1,0
21.09.2018 08:00:00 6,9 5,9 - - 18 10 - - WNW 992,8 7 0 0,4
21.09.2018 07:00:00 6,8 5,4 - - 16 9 - - WNW 992,5 30 0 0,0
21.09.2018 06:00:00 6,6 4,4 - - 18 10 - - WNW 992,4 45 0 0,0
21.09.2018 05:00:00 5,9 4,9 - - 13 7 - - WNW 992,8 29 0 0,0
21.09.2018 04:00:00 5,3 5,1 - - 5 3 - - SW 993,7 20 0 0,0
21.09.2018 03:00:00 3,6 3,2 - - 5 3 - - WSW 994,5 23 0 0,0
21.09.2018 02:00:00 3,3 2,8 - - 5 3 - - W 995,2 22 0 0,0
21.09.2018 01:00:00 3,5 2,7 - - 4 2 - - WSW 995,5 29 - 0,0
21.09.2018 00:00:00 4,4 3,4 - - 0 0 - - N 996,3 30 0 0,0
20.09.2018 23:00:00 5,1 4,2 - - 2 1 - - WNW 996,8 27 0 0,0
20.09.2018 22:00:00 6,1 5,0 - - 5 3 - - WSW 997,1 29 0 0,0
20.09.2018 21:00:00 6,5 5,1 - - 5 3 - - WSW 998,0 35 0 0,0
20.09.2018 20:00:00 7,7 5,8 - - 11 6 - - W 998,3 40 0 0,0
20.09.2018 19:00:00 8,4 5,8 - - 4 2 - - S 998,9 35 0 0,0
20.09.2018 18:00:00 9,3 5,7 - - 18 10 - - WSW 998,7 21 0 0,0
20.09.2018 17:00:00 10,0 5,2 - - 18 10 48 26 WSW 998,8 35 0 0,0
20.09.2018 16:00:00 10,2 5,6 - - 18 10 59 32 WSW 998,9 25 24 0,0
20.09.2018 15:00:00 10,6 6,0 - - 34 18 50 27 WSW 999,4 35 6 0,0
20.09.2018 14:00:00 10,8 6,3 - - 34 18 63 34 WSW 999,2 26 12 0,0
20.09.2018 13:00:00 10,2 6,4 - - 34 18 57 31 WSW 998,7 23 0 0,0
20.09.2018 12:00:00 10,0 5,6 - - 34 18 63 34 SW 998,2 23 6 0,0
20.09.2018 11:00:00 9,4 5,1 - - 37 20 78 42 W 997,4 11 12 0,0
20.09.2018 10:00:00 8,9 4,1 11,0 11,5 44 24 78 42 WSW 996,7 8 24 0,2
20.09.2018 09:00:00 8,8 3,6 - - 31 17 67 36 WSW 996,2 20 0 0,8
20.09.2018 08:00:00 8,0 3,7 - - 44 24 76 41 WSW 996,1 24 0 0,4
20.09.2018 07:00:00 8,1 3,7 - - 34 18 65 35 WSW 995,8 10 0 0,4
20.09.2018 06:00:00 8,3 3,3 - - 42 23 70 38 WSW 995,7 8 0 0,2
20.09.2018 05:00:00 8,6 3,3 - - 42 23 67 36 WSW 995,3 27 0 0,0
20.09.2018 04:00:00 8,4 4,2 - - 34 18 67 36 WSW 995,1 25 0 0,2
20.09.2018 03:00:00 8,5 4,6 - - 42 23 67 36 WSW 994,7 35 0 0,6
20.09.2018 02:00:00 8,1 5,1 - - 34 18 59 32 WSW 994,3 29 0 0,2
20.09.2018 01:00:00 8,1 4,4 - - 41 22 70 38 WSW 993,9 40 - 0,4
20.09.2018 00:00:00 7,9 5,0 - - 35 19 65 35 WSW 993,7 6 0 0,6
19.09.2018 23:00:00 7,9 5,1 - - 26 14 72 39 WSW 993,0 22 0 0,8
19.09.2018 22:00:00 7,9 4,7 - - 44 24 78 42 WSW 992,9 5 0 0,2
19.09.2018 21:00:00 8,5 3,6 - - 55 30 87 47 WSW 992,4 40 0 0,0
19.09.2018 20:00:00 7,6 4,5 - - 39 21 80 43 W 991,6 8 0 1,2
19.09.2018 19:00:00 8,6 4,5 - - 48 26 76 41 WSW 989,4 45 0 1,0
19.09.2018 18:00:00 8,6 5,3 - - 52 28 80 43 W 988,2 14 0 1,0
19.09.2018 17:00:00 9,1 6,1 - - 52 28 91 49 W 986,7 40 0 1,8
19.09.2018 16:00:00 8,1 6,9 - - 61 33 120 65 W 984,0 6 0 2,2
19.09.2018 15:00:00 8,9 6,7 - - 44 24 70 38 SW 978,7 3,5 0 0,8
19.09.2018 14:00:00 9,2 8,4 - - 9 5 - - ESE 978,5 40 0 3,2
19.09.2018 13:00:00 7,7 6,8 - - 16 9 52 28 ESE 979,7 9 0 4,4
19.09.2018 12:00:00 8,4 6,6 - - 18 10 59 32 S 982,0 4,6 0 6,6
19.09.2018 11:00:00 7,3 6,1 - - 22 12 - - ESE 985,0 9 0 2,0
19.09.2018 10:00:00 8,0 5,0 11,7 11,7 26 14 - - SE 988,1 19 0 0,2
19.09.2018 09:00:00 9,9 4,5 - - 21 11 - - SSE 990,1 45 0 0,0
19.09.2018 08:00:00 9,1 6,0 - - 16 9 - - SSE 991,7 45 0 0,0
19.09.2018 07:00:00 9,1 5,9 - - 18 10 54 29 SSE 993,4 45 0 0,0
19.09.2018 06:00:00 9,3 5,5 - - 29 16 55 30 SW 993,7 30 0 0,0
19.09.2018 05:00:00 9,4 5,7 - - 29 16 57 31 SW 993,8 10 0 0,0
19.09.2018 04:00:00 9,0 6,6 - - 35 19 68 37 SW 993,4 28 0 0,2
19.09.2018 03:00:00 8,5 5,3 - - 29 16 63 34 SW 993,1 20 0 1,0
19.09.2018 02:00:00 8,9 5,2 - - 37 20 67 36 SW 993,3 23 0 5,4
19.09.2018 01:00:00 9,4 6,8 - - 18 10 - - S 992,5 10 - 0,8
19.09.2018 00:00:00 10,1 5,4 - - 34 18 54 29 WSW 993,6 18 0 0,0
18.09.2018 23:00:00 11,6 7,0 - - 28 15 65 35 SW 993,4 20 0 0,0
18.09.2018 22:00:00 12,0 6,4 - - 34 18 80 43 SW 994,1 26 0 0,0
18.09.2018 21:00:00 12,8 8,5 - - 35 19 59 32 SW 993,6 30 0 0,0
18.09.2018 20:00:00 12,5 9,3 - - 29 16 46 25 WSW 993,6 12 0 0,0
18.09.2018 19:00:00 12,0 9,3 - - 28 15 59 32 WSW 993,8 16 0 0,0
18.09.2018 18:00:00 12,1 9,5 - - 28 15 46 25 SW 993,4 9 6 0,0
18.09.2018 17:00:00 13,7 11,1 - - 18 10 - - WSW 992,4 30 30 0,0
18.09.2018 16:00:00 14,2 11,3 - - 28 15 - - SW 992,1 50 12 0,6
18.09.2018 15:00:00 13,2 12,6 - - 15 8 - - E 991,6 40 0 0,2
18.09.2018 14:00:00 12,4 11,9 - - 8 4 - - E 991,5 6 0 3,0
18.09.2018 13:00:00 12,7 12,1 - - 5 3 - - ESE 992,2 6 0 1,6
18.09.2018 12:00:00 12,5 11,7 - - 2 1 - - ESE 992,3 23 0 0,0
18.09.2018 11:00:00 12,0 11,8 - - 4 2 - - ESE 992,9 5 0 0,6
18.09.2018 10:00:00 11,4 11,2 11,7 11,5 5 3 - - W 993,6 3,3 0 0,0
18.09.2018 09:00:00 11,2 11,1 - - 9 5 - - WNW 993,9 50 0 0,0
18.09.2018 08:00:00 11,0 10,8 - - 11 6 - - WNW 994,0 3,7 0 0,0
18.09.2018 07:00:00 11,0 10,7 - - 11 6 - - WNW 994,2 5 0 0,0
18.09.2018 06:00:00 11,8 11,2 - - 18 10 - - W 994,4 8 0 0,0
18.09.2018 05:00:00 13,1 11,8 - - 5 3 - - NW 994,3 18 0 0,0
18.09.2018 04:00:00 14,9 11,5 - - 28 15 50 27 WSW 993,9 17 0 0,0
18.09.2018 03:00:00 15,6 12,6 - - 28 15 74 40 SW 993,5 45 0 0,0
18.09.2018 02:00:00 16,0 13,4 - - 41 22 67 36 SW 992,9 10 0 0,0
18.09.2018 01:00:00 16,7 14,0 - - 28 15 55 30 SW 992,8 29 - 0,0
18.09.2018 00:00:00 15,5 14,5 - - 16 9 - - S 993,0 9 0 1,6
17.09.2018 23:00:00 13,7 13,4 - - 11 6 - - ESE 993,3 6 0 2,0
17.09.2018 22:00:00 12,6 12,6 - - 11 6 - - ESE 993,7 6 0 1,8
17.09.2018 21:00:00 11,9 11,8 - - 15 8 - - ESE 994,3 7 0 2,4
17.09.2018 20:00:00 11,5 11,2 - - 18 10 - - ESE 995,2 6 0 2,2
17.09.2018 19:00:00 11,5 10,8 - - 21 11 - - ESE 995,8 14 0 0,2
17.09.2018 18:00:00 11,4 10,7 - - 21 11 - - ESE 996,9 22 0 0,2
17.09.2018 17:00:00 11,2 10,7 - - 22 12 - - ESE 998,8 19 0 1,4
17.09.2018 16:00:00 11,4 10,6 - - 16 9 - - ESE 1000,7 25 0 1,2
17.09.2018 15:00:00 11,4 9,9 - - 22 12 - - SE 1002,2 16 0 1,8
17.09.2018 14:00:00 12,3 10,9 - - 21 11 - - ESE 1003,4 30 0 0,2
17.09.2018 13:00:00 11,7 10,7 - - 15 8 - - ESE 1004,2 35 0 0,0
17.09.2018 12:00:00 10,8 10,2 - - 16 9 - - ESE 1005,3 4,6 0 0,4
17.09.2018 11:00:00 10,9 9,9 - - 9 5 - - E 1006,0 18 0 1,0
17.09.2018 10:00:00 11,0 9,7 11,2 11,7 4 2 - - SE 1006,8 24 0 0,2
17.09.2018 09:00:00 9,8 9,4 - - 5 3 - - WSW 1007,0 13 0 0,4
17.09.2018 08:00:00 9,2 8,9 - - 11 6 - - E 1007,1 4,1 0 0,0
17.09.2018 07:00:00 9,6 8,2 - - 8 4 - - SW 1007,1 35 0 0,0
17.09.2018 06:00:00 10,2 7,8 - - 15 8 - - SW 1007,1 40 0 0,0
17.09.2018 05:00:00 10,0 7,4 - - 9 5 - - SSW 1007,2 21 0 0,0
17.09.2018 04:00:00 9,9 6,7 - - 21 11 - - W 1007,5 45 0 0,0
17.09.2018 03:00:00 9,1 7,6 - - 11 6 - - WSW 1007,6 50 0 0,2
17.09.2018 02:00:00 9,8 7,9 - - 22 12 - - WSW 1007,3 11 0 0,2
17.09.2018 01:00:00 9,9 8,4 - - 15 8 - - WSW 1007,5 18 - 0,0
17.09.2018 00:00:00 9,4 7,7 - - 18 10 - - WSW 1007,9 4,8 0 0,2
16.09.2018 23:00:00 9,4 6,6 - - 16 9 - - SW 1007,8 30 0 0,0
16.09.2018 22:00:00 8,9 6,0 - - 15 8 - - WSW 1008,3 24 0 0,0
16.09.2018 21:00:00 8,6 5,0 - - 21 11 - - SW 1008,3 50 0 0,0
16.09.2018 20:00:00 8,5 4,5 - - 21 11 - - WSW 1007,8 28 0 0,0
16.09.2018 19:00:00 9,2 4,6 - - 29 16 - - WSW 1007,5 45 0 0,0
16.09.2018 18:00:00 9,6 5,2 - - 24 13 - - WSW 1007,2 22 0 0,2
16.09.2018 17:00:00 9,7 4,7 - - 26 14 55 30 WSW 1006,8 7 6 0,0
16.09.2018 16:00:00 11,2 6,0 - - 24 13 57 31 WSW 1006,2 50 6 0,0
16.09.2018 15:00:00 10,9 5,6 - - 31 17 55 30 W 1005,7 19 18 0,2
16.09.2018 14:00:00 10,5 5,6 - - 35 19 50 27 W 1005,3 30 0 0,0

tt = temperature
td = dewpoint
tt -20cm = temperature -20cm
tt -100cm = temperature -100cm
ff = wind speed
fx = gusts
dd = wind direction
ppp = reduced air pressure
vv = visibility
sd = sunshine duration
rr = precipitation

Next stations